East Mecca
DateTemperatureDew Point
05/26 - 02:00 PM89.8°49.0°
05/26 - 01:45 PM89.6°47.6°
05/26 - 01:30 PM89.5°48.4°
05/26 - 01:15 PM89.4°48.8°
05/26 - 01:00 PM88.8°49.8°
05/26 - 12:45 PM88.5°50.9°
05/26 - 12:30 PM87.5°53.7°
05/26 - 12:15 PM87.4°54.1°
05/26 - 12:00 PM86.3°54.7°
05/26 - 11:45 AM86.7°52.5°
05/26 - 11:30 AM86.4°50.4°
05/26 - 11:15 AM86.2°50.9°
05/26 - 11:00 AM84.9°50.8°
05/26 - 10:45 AM83.8°50.5°
05/26 - 10:30 AM82.7°51.2°
05/26 - 10:15 AM81.4°51.9°
05/26 - 10:00 AM81.1°52.2°
05/26 - 09:45 AM79.4°51.7°
05/26 - 09:30 AM78.6°51.7°
05/26 - 09:15 AM77.7°51.5°
05/26 - 09:00 AM77.1°51.4°
05/26 - 08:45 AM76.5°51.7°
05/26 - 08:30 AM75.6°51.4°
05/26 - 08:15 AM74.6°51.4°
05/26 - 08:00 AM73.6°51.4°
05/26 - 07:45 AM72.5°51.7°
05/26 - 07:30 AM71.3°52.0°
05/26 - 07:15 AM69.9°52.2°
05/26 - 07:00 AM68.8°51.8°
05/26 - 06:45 AM67.7°51.7°
05/26 - 06:30 AM66.6°51.7°
05/26 - 06:15 AM66.2°51.2°
05/26 - 06:00 AM65.5°51.2°
05/26 - 05:45 AM64.4°51.2°
05/26 - 05:30 AM63.5°50.7°
05/26 - 05:15 AM63.4°49.9°
05/26 - 05:00 AM64.5°49.9°
05/26 - 04:45 AM64.9°50.0°
05/26 - 04:30 AM64.3°50.3°
05/26 - 04:15 AM64.0°50.2°
05/26 - 04:00 AM64.3°50.5°
05/26 - 03:45 AM65.0°51.1°
05/26 - 03:30 AM65.7°51.4°
05/26 - 03:15 AM66.6°51.2°
05/26 - 03:00 AM67.1°50.9°
05/26 - 02:45 AM67.9°50.7°
05/26 - 02:30 AM68.1°50.2°
05/26 - 02:15 AM67.9°50.1°
05/26 - 02:00 AM68.0°50.4°
05/26 - 01:45 AM68.8°50.7°
05/26 - 01:30 AM69.7°50.3°
05/26 - 01:15 AM70.4°50.1°
05/26 - 01:00 AM70.4°49.7°
05/26 - 12:45 AM70.4°50.3°
05/26 - 12:30 AM70.8°50.6°
05/26 - 12:15 AM71.2°50.5°
05/26 - 12:00 AM71.5°50.9°
05/25 - 11:45 PM72.0°50.6°
05/25 - 11:30 PM72.1°50.6°
05/25 - 11:15 PM72.3°50.5°
05/25 - 11:00 PM72.6°51.0°
05/25 - 10:45 PM73.6°50.7°
05/25 - 10:30 PM74.0°50.6°
05/25 - 10:15 PM73.9°51.2°
05/25 - 10:00 PM73.9°51.5°
05/25 - 09:45 PM74.5°51.5°
05/25 - 09:30 PM75.2°51.5°
05/25 - 09:15 PM75.8°51.4°
05/25 - 09:00 PM76.2°51.2°
05/25 - 08:45 PM76.7°51.3°
05/25 - 08:30 PM77.7°51.1°
05/25 - 08:15 PM78.5°50.9°
05/25 - 08:00 PM79.3°50.6°
05/25 - 07:45 PM80.4°50.3°
05/25 - 07:30 PM81.3°50.0°
05/25 - 07:15 PM82.2°50.2°
05/25 - 07:00 PM83.3°49.6°
05/25 - 06:45 PM84.5°49.7°
05/25 - 06:30 PM85.5°49.5°
05/25 - 06:15 PM86.4°49.3°
05/25 - 06:00 PM87.4°49.5°
05/25 - 05:45 PM88.1°49.2°
05/25 - 05:30 PM88.6°49.1°
05/25 - 05:15 PM88.9°48.8°
05/25 - 05:00 PM89.1°48.3°
05/25 - 04:45 PM89.0°48.8°
05/25 - 04:30 PM89.2°49.0°
05/25 - 04:15 PM89.3°48.4°
05/25 - 04:00 PM89.7°49.0°
05/25 - 03:45 PM89.4°49.1°
05/25 - 03:30 PM88.4°47.4°
05/25 - 03:15 PM88.4°47.3°
05/25 - 03:00 PM88.2°48.7°
05/25 - 02:45 PM88.2°47.8°
05/25 - 02:30 PM87.7°47.2°
05/25 - 02:15 PM86.7°46.3°
05/25 - 02:00 PM86.6°47.2°
05/25 - 01:45 PM86.6°46.7°
05/25 - 01:30 PM85.4°46.0°
05/25 - 01:15 PM84.5°47.5°
05/25 - 01:00 PM84.5°47.5°
05/25 - 12:45 PM83.4°46.7°
05/25 - 12:30 PM83.6°47.8°
05/25 - 12:15 PM82.9°47.9°
05/25 - 12:00 PM82.0°47.6°
05/25 - 11:45 AM81.4°47.7°
05/25 - 11:30 AM81.0°48.3°
05/25 - 11:15 AM80.6°48.2°
05/25 - 11:00 AM79.8°48.3°
05/25 - 10:45 AM79.1°48.4°
05/25 - 10:30 AM79.0°48.5°
05/25 - 10:15 AM78.3°48.2°
05/25 - 10:00 AM77.7°48.1°
05/25 - 09:45 AM76.9°48.1°
05/25 - 09:30 AM76.1°48.2°
05/25 - 09:15 AM74.9°48.3°
05/25 - 09:00 AM74.6°48.8°
05/25 - 08:45 AM73.8°48.9°
05/25 - 08:30 AM72.9°49.0°
05/25 - 08:15 AM72.0°48.8°
05/25 - 08:00 AM71.5°49.2°
05/25 - 07:45 AM70.7°49.4°
05/25 - 07:30 AM69.9°49.3°
05/25 - 07:15 AM69.2°49.5°
05/25 - 07:00 AM68.5°50.0°
05/25 - 06:45 AM68.1°49.8°
05/25 - 06:30 AM68.1°48.6°
05/25 - 06:15 AM67.7°48.4°
05/25 - 06:00 AM67.6°48.0°
05/25 - 05:45 AM67.6°48.0°
05/25 - 05:30 AM67.9°47.8°
05/25 - 05:15 AM68.3°47.4°
05/25 - 05:00 AM68.4°47.5°
05/25 - 04:45 AM68.7°47.5°
05/25 - 04:30 AM68.6°47.6°
05/25 - 04:15 AM68.2°48.5°
05/25 - 04:00 AM68.6°48.6°
05/25 - 03:45 AM68.6°48.6°
05/25 - 03:30 AM68.2°49.2°
05/25 - 03:15 AM68.7°49.3°
05/25 - 03:00 AM69.1°49.4°
05/25 - 02:45 AM68.9°49.8°
05/25 - 02:30 AM68.9°50.0°
05/25 - 02:15 AM69.0°50.1°
05/25 - 02:00 AM69.2°50.2°
05/25 - 01:45 AM69.4°50.3°
05/25 - 01:30 AM69.5°50.4°
05/25 - 01:15 AM69.3°50.5°
05/25 - 01:00 AM69.4°50.6°
05/25 - 12:45 AM69.4°50.5°
05/25 - 12:30 AM70.2°50.5°
05/25 - 12:15 AM70.7°50.3°
05/25 - 12:00 AM70.8°50.5°
05/24 - 11:45 PM71.0°50.4°
05/24 - 11:30 PM71.6°50.6°
05/24 - 11:15 PM72.0°50.6°
05/24 - 11:00 PM72.6°50.4°
05/24 - 10:45 PM72.8°50.1°
05/24 - 10:30 PM74.0°49.3°
05/24 - 10:15 PM75.0°47.7°
05/24 - 10:00 PM75.8°47.4°
05/24 - 09:45 PM76.4°47.0°
05/24 - 09:30 PM76.6°47.1°
05/24 - 09:15 PM77.2°46.9°
05/24 - 09:00 PM77.6°47.4°
05/24 - 08:45 PM77.8°47.6°
05/24 - 08:30 PM78.2°47.5°
05/24 - 08:15 PM78.4°48.0°
05/24 - 08:00 PM78.7°48.0°
05/24 - 07:45 PM79.3°48.4°
05/24 - 07:30 PM79.9°48.7°
05/24 - 07:15 PM81.3°48.1°
05/24 - 07:00 PM82.5°48.0°
05/24 - 06:45 PM83.6°48.8°
05/24 - 06:30 PM84.8°48.9°
05/24 - 06:15 PM85.8°49.4°
05/24 - 06:00 PM86.1°49.7°
05/24 - 05:45 PM86.2°49.9°
05/24 - 05:30 PM87.5°50.4°
05/24 - 05:15 PM87.8°50.4°
05/24 - 05:00 PM88.4°50.6°
05/24 - 04:45 PM88.7°50.4°
05/24 - 04:30 PM89.5°51.1°
05/24 - 04:15 PM90.2°51.4°
05/24 - 04:00 PM90.1°51.4°
05/24 - 03:45 PM89.7°51.1°
05/24 - 03:30 PM89.4°51.0°
05/24 - 03:15 PM89.1°51.6°
05/24 - 03:00 PM89.5°51.2°